Temperature
-0 -0 -0 0 0 1 1 1 1 1 2 2 3 3 3 3 3 4 4 4 4 4 4 5 5 5 6 6 6 7 7 7 7 7 7 7 7 7 7 7 7 7 7
-1 -1 -1 -0 -0 0 0 0 1 1 1 2 2 2 2 3 3 3 3 3 4 4 4 4 5 5 5 6 6 6 6 7 7 7 7 7 7 7 7 6 6 6 7
-1 -1 -1 -1 -1 -1 -0 -0 -0 0 1 1 1 2 2 2 2 2 3 3 3 3 3 4 4 4 5 5 5 6 6 6 6 6 6 6 6 6 6 6 6 6 6
-2 -2 -2 -2 -1 -1 -1 -0 -0 -0 0 0 1 1 1 1 2 2 2 2 2 3 3 3 3 4 4 5 5 5 5 5 5 6 6 6 6 6 5 5 5 6 5
-3 -3 -2 -2 -2 -2 -1 -1 -1 -1 -1 -0 0 1 1 1 1 1 1 2 2 2 2 3 3 3 4 4 4 4 5 5 5 5 5 5 5 5 5 5 5 5 5
-3 -3 -3 -3 -3 -2 -2 -2 -2 -1 -1 -1 -0 -0 0 0 1 1 1 1 1 1 2 2 2 3 3 3 4 4 4 4 4 4 4 4 5 5 4 4 4 4 4
-4 -4 -4 -3 -3 -3 -3 -2 -2 -2 -1 -1 -1 -1 -0 -0 -0 0 0 0 0 1 1 1 2 2 2 3 3 3 3 3 4 4 4 4 4 4 4 4 4 4 4
-4 -4 -4 -4 -4 -3 -3 -3 -3 -3 -2 -2 -1 -1 -1 -1 -1 -1 -1 -1 -0 0 0 1 1 1 2 2 2 2 2 3 3 3 3 3 3 3 3 3 3 3 3
-5 -5 -5 -5 -4 -4 -4 -3 -3 -3 -3 -3 -2 -2 -2 -1 -1 -1 -1 -1 -1 -1 -0 -0 0 1 1 1 1 1 2 2 2 2 2 3 3 3 3 2 2 2 2
-6 -6 -5 -5 -5 -5 -4 -4 -4 -4 -4 -3 -3 -3 -2 -2 -2 -2 -2 -2 -2 -1 -1 -1 -1 -1 -0 0 0 1 1 1 1 2 2 2 2 2 2 2 2 2 2
-6 -6 -6 -6 -6 -5 -5 -5 -5 -5 -4 -4 -4 -3 -3 -3 -3 -3 -2 -2 -2 -2 -2 -2 -1 -1 -1 -1 -0 -0 0 0 1 1 1 1 1 1 1 1 1 1 1
-7 -7 -6 -6 -6 -6 -6 -6 -5 -5 -5 -5 -4 -4 -4 -4 -3 -3 -3 -3 -3 -3 -2 -2 -2 -2 -1 -1 -1 -1 -1 -0 -0 -0 -0 -0 0 0 1 1 1 1 1
-7 -7 -7 -7 -7 -7 -6 -6 -6 -6 -6 -5 -5 -5 -5 -4 -4 -4 -4 -4 -3 -3 -3 -3 -3 -2 -2 -2 -1 -1 -1 -1 -1 -1 -1 -1 -0 -0 -0 -0 0 0 0
-8 -7 -7 -7 -7 -7 -7 -7 -7 -7 -6 -6 -6 -6 -6 -5 -5 -5 -4 -4 -4 -4 -3 -3 -3 -3 -3 -2 -2 -2 -2 -2 -1 -1 -1 -1 -1 -1 -1 -1 -1 -1 -0
-8 -8 -8 -8 -8 -7 -7 -7 -7 -7 -7 -7 -7 -7 -6 -6 -6 -6 -5 -5 -5 -4 -4 -4 -4 -4 -3 -3 -3 -3 -3 -2 -2 -2 -2 -2 -2 -2 -2 -2 -1 -1 -1
-8 -8 -8 -8 -8 -8 -8 -8 -7 -8 -7 -7 -7 -7 -7 -7 -6 -6 -6 -6 -5 -5 -5 -5 -5 -5 -5 -5 -4 -4 -3 -3 -3 -3 -3 -3 -3 -3 -3 -3 -2 -2 -2
-9 -9 -9 -9 -9 -8 -8 -8 -8 -8 -8 -8 -8 -8 -7 -7 -7 -7 -7 -6 -6 -6 -6 -6 -6 -6 -6 -5 -5 -5 -5 -4 -4 -4 -4 -4 -4 -3 -3 -3 -3 -3 -3
-9 -9 -9 -9 -9 -9 -9 -9 -9 -9 -9 -8 -8 -8 -8 -8 -8 -7 -7 -7 -7 -7 -6 -6 -6 -6 -6 -6 -6 -6 -5 -5 -5 -5 -4 -4 -4 -4 -4 -4 -4 -4 -4
-9 -9 -10 -10 -10 -9 -9 -9 -10 -9 -9 -9 -9 -8 -8 -8 -8 -8 -8 -7 -7 -7 -7 -7 -7 -7 -7 -7 -7 -6 -6 -6 -6 -6 -5 -5 -5 -5 -5 -5 -5 -5 -5
-10 -10 -10 -10 -10 -10 -10 -10 -10 -10 -10 -9 -9 -9 -9 -9 -8 -8 -8 -8 -8 -8 -8 -8 -8 -8 -7 -7 -7 -7 -7 -7 -6 -6 -6 -6 -6 -6 -6 -5 -5 -5 -5
-10 -10 -10 -10 -10 -10 -10 -10 -10 -10 -10 -10 -10 -10 -9 -9 -9 -9 -9 -9 -9 -8 -8 -8 -8 -8 -8 -8 -8 -8 -7 -7 -7 -7 -7 -7 -7 -6 -6 -6 -6 -6 -6
-11 -11 -11 -11 -11 -11 -11 -11 -11 -11 -10 -10 -10 -10 -10 -10 -10 -10 -9 -9 -9 -9 -9 -9 -9 -9 -8 -8 -8 -8 -8 -8 -8 -8 -7 -7 -7 -7 -7 -7 -6 -6 -6
-11 -11 -11 -11 -11 -11 -11 -11 -11 -11 -11 -10 -10 -10 -10 -10 -10 -10 -10 -10 -10 -9 -9 -9 -9 -9 -9 -9 -9 -9 -8 -8 -8 -8 -8 -8 -8 -8 -7 -7 -7 -7 -7
-11 -11 -11 -11 -11 -11 -11 -11 -11 -11 -11 -11 -11 -11 -11 -11 -10 -10 -10 -10 -10 -10 -10 -10 -9 -9 -9 -9 -9 -9 -9 -9 -9 -8 -8 -8 -8 -8 -8 -8 -8 -8 -7
-12 -12 -12 -12 -12 -12 -12 -12 -12 -12 -11 -11 -11 -11 -11 -11 -11 -11 -11 -11 -10 -10 -10 -10 -10 -10 -9 -9 -9 -9 -9 -9 -9 -9 -9 -8 -8 -8 -8 -8 -8 -8 -8
-12 -12 -12 -12 -12 -12 -12 -12 -12 -12 -12 -12 -12 -12 -11 -11 -11 -11 -11 -11 -11 -11 -11 -10 -10 -10 -10 -10 -10 -10 -10 -9 -9 -9 -9 -9 -9 -9 -9 -9 -9 -9 -9
Wind_Speed
5 5 5 5 4 3 4 5 5 5 5 5 5 5 5 6 6 7 7 7 8 7 6 7 7 6 6 5 5 5 5 4 5 4 3 3 5 6 7 8 9 9 10
5 5 5 5 5 4 5 5 5 5 5 5 5 5 5 5 6 7 7 7 8 8 7 7 7 6 6 6 6 6 5 5 5 5 4 4 5 6 6 5 6 8 9
5 5 5 5 5 5 5 5 5 5 5 4 4 5 5 5 6 6 7 7 8 8 7 7 6 6 6 5 5 6 5 4 4 5 4 4 3 3 4 3 3 4 6
5 5 6 6 5 6 6 5 5 4 4 4 4 4 5 5 5 6 6 6 6 7 6 6 7 7 8 7 6 6 5 5 4 5 4 4 4 3 4 4 3 3 3
5 5 6 6 6 5 6 5 5 4 5 4 4 4 4 4 4 5 5 5 6 6 5 5 5 6 8 7 6 5 5 5 5 5 5 4 4 5 6 4 5 3 3
6 6 6 6 6 6 6 5 5 5 4 4 4 4 4 4 6 7 6 5 5 5 5 4 5 5 6 7 7 8 8 7 7 7 6 7 8 6 5 5 4 4 4
6 6 6 6 6 6 6 5 5 4 4 4 4 4 4 5 6 7 8 5 4 4 4 4 4 5 5 5 5 6 6 7 8 7 8 8 7 7 8 7 7 6 6
6 6 6 6 6 6 5 5 5 5 4 4 4 4 4 5 6 7 7 5 4 4 4 5 5 5 5 5 4 5 5 5 6 6 7 7 7 6 7 7 7 5 2
6 6 6 6 5 5 5 5 5 4 4 4 4 4 4 5 6 6 6 3 4 4 4 4 5 5 7 7 6 6 5 5 5 6 7 7 8 8 6 4 4 4 5
7 7 6 6 5 5 5 5 4 4 4 4 4 3 3 4 5 6 6 3 4 4 4 4 6 6 7 7 6 6 6 5 3 3 3 3 4 5 5 5 6 6 4
7 6 6 5 5 5 4 4 4 4 4 3 4 4 3 4 5 6 6 3 3 4 4 3 4 6 7 7 6 6 7 5 4 3 3 2 2 2 2 2 3 5 5
6 6 5 5 5 4 4 4 3 3 3 3 3 4 3 3 4 6 6 5 4 3 3 3 3 5 6 6 5 4 4 4 3 3 3 3 3 3 2 2 2 2 2
5 5 5 6 5 4 3 3 3 2 2 3 3 3 3 3 4 6 6 6 5 3 3 4 4 4 4 3 3 3 3 3 3 3 4 3 3 3 2 1 1 1 1
5 5 5 5 4 4 3 3 3 2 2 3 3 3 3 3 3 3 3 3 4 3 3 3 3 3 2 2 1 1 1 2 3 4 3 2 1 2 2 2 2 1 0
5 5 5 5 4 4 4 3 3 2 3 3 2 2 2 2 3 4 3 2 2 2 1 1 1 1 1 1 1 0 0 0 1 2 2 2 2 2 2 1 1 1 2
5 5 4 4 4 3 3 4 6 5 6 6 5 4 3 4 4 4 4 4 3 2 1 0 1 1 1 1 1 1 0 0 1 1 2 2 2 2 2 1 1 2 2
4 4 4 4 4 3 3 3 4 6 6 6 6 6 5 4 4 4 3 3 3 2 1 0 0 1 1 1 1 1 1 1 0 1 1 2 2 2 2 2 2 2 2
4 5 5 3 3 3 3 3 3 3 4 4 5 6 5 4 4 4 3 2 2 2 1 0 1 1 1 1 1 1 1 1 0 0 1 1 1 2 1 2 2 3 2
4 4 3 3 3 3 3 3 3 3 3 3 3 3 5 5 5 5 4 1 1 1 1 1 1 1 1 1 1 1 1 1 0 1 1 1 1 1 2 2 2 2 2
4 7 5 4 3 3 3 3 3 3 3 3 3 3 3 3 2 3 2 1 1 1 1 1 1 1 1 1 1 1 1 1 1 1 1 1 1 1 2 2 2 2 2
4 5 7 5 3 3 3 3 3 3 3 3 3 4 4 2 2 2 2 2 1 1 1 2 2 1 1 1 1 1 1 1 1 1 2 2 1 2 2 2 2 2 2
3 3 3 3 3 3 3 3 3 3 3 3 3 3 5 2 2 2 2 2 2 2 1 1 2 2 1 1 1 1 2 2 2 2 2 2 2 2 2 2 2 2 2
3 4 4 4 3 5 5 3 3 3 3 3 3 3 3 2 2 2 2 2 2 2 2 2 2 2 2 2 2 2 2 2 2 2 2 2 2 2 2 2 2 2 2
3 4 4 4 4 3 4 4 4 4 3 2 2 2 2 2 2 3 2 2 2 3 3 2 2 2 3 3 2 3 3 3 3 3 3 3 3 2 2 2 2 3 3
3 3 4 4 4 4 4 4 4 3 3 3 3 3 3 3 3 3 2 2 3 3 4 3 3 3 3 3 4 4 4 4 4 3 3 3 3 3 3 2 2 2 2
3 3 3 3 3 4 4 4 4 3 3 3 3 3 3 3 3 3 3 3 3 3 4 4 4 4 4 4 4 5 5 5 5 4 3 3 3 3 3 2 3 3 3
Wind_Direction
303 303 302 290 284 282 275 270 269 266 263 252 252 241 234 233 233 229 230 231 231 233 233 231 234 229 224 224 216 210 214 215 229 247 240 210 193 195 203 208 211 210 212
301 305 304 306 298 284 282 277 276 274 268 255 254 247 244 244 237 229 233 236 233 234 234 233 237 236 228 224 219 217 218 218 216 230 232 207 209 197 195 198 209 213 215
307 308 308 307 305 294 283 278 276 272 274 267 257 248 244 247 246 240 234 234 234 234 232 233 234 233 231 231 225 222 223 227 218 218 222 208 208 191 188 201 201 210 219
306 306 306 306 302 298 294 279 272 271 268 263 259 257 251 255 257 253 246 239 234 236 233 231 231 230 228 224 225 225 222 221 217 214 215 203 201 188 183 195 209 222 229
304 305 303 304 304 302 301 290 277 271 272 269 261 268 263 255 263 262 254 246 234 233 235 231 232 235 234 225 225 219 215 215 212 217 214 214 209 195 203 199 210 217 241
301 298 301 307 309 305 302 298 289 279 276 271 260 261 260 262 282 283 274 251 243 235 238 241 243 242 241 240 238 231 223 219 216 217 222 218 218 209 205 204 204 211 237
307 308 308 309 307 306 304 303 297 288 287 282 266 256 253 267 284 286 284 266 253 247 247 248 255 255 244 233 235 236 237 236 228 222 220 223 219 211 204 207 212 218 234
306 307 307 308 305 307 302 296 294 288 281 283 281 269 263 275 285 280 278 262 253 253 251 248 248 253 245 230 223 231 235 234 231 228 223 224 227 221 215 217 216 223 245
305 304 305 302 300 302 300 295 288 287 287 287 281 274 271 282 291 287 280 251 254 261 260 257 253 251 261 242 227 229 236 244 250 239 236 231 230 225 208 198 199 207 238
302 300 300 299 299 298 295 295 289 290 290 299 297 291 275 278 297 296 282 245 250 259 263 260 258 258 259 244 229 222 230 238 231 240 244 243 231 221 213 213 212 214 223
300 301 301 300 297 292 295 296 294 297 301 305 304 309 298 290 301 300 294 261 249 255 261 265 264 266 260 250 243 233 235 231 216 211 221 223 223 219 221 224 224 217 220
304 305 303 301 298 302 304 305 304 301 306 307 309 313 308 301 299 297 300 300 290 259 265 274 277 277 267 263 253 246 236 228 210 203 211 221 228 234 228 213 206 233 241
311 311 310 303 302 304 302 302 304 302 300 305 305 305 313 309 301 299 299 301 300 285 274 284 295 298 289 273 263 237 220 209 202 206 215 229 233 229 214 189 133 118 52
314 313 312 310 305 303 303 297 290 286 284 288 291 295 303 306 301 295 286 289 295 293 290 292 300 306 310 309 287 254 229 210 205 209 208 218 227 218 215 205 209 183 180
315 311 312 312 309 313 315 311 304 283 271 279 274 272 292 300 302 309 305 289 288 284 294 340 8 354 1 13 357 350 337 210 213 200 192 203 217 224 233 220 208 211 211
317 317 314 313 313 315 318 322 327 319 321 315 312 309 304 306 308 315 322 331 338 341 3 51 343 324 306 296 288 308 321 298 245 198 196 205 212 215 217 218 200 203 211
307 312 312 316 315 316 317 321 325 332 332 327 326 324 325 331 335 339 343 351 5 15 51 54 314 305 303 299 302 298 299 297 260 217 210 207 208 208 207 214 209 211 219
311 312 314 310 309 311 312 310 310 317 325 327 329 332 335 341 346 350 355 2 0 11 28 343 311 305 306 308 315 317 312 314 275 245 244 233 214 204 207 218 216 212 220
316 314 312 310 308 306 309 312 313 314 314 315 326 334 344 346 348 351 350 7 358 344 347 344 323 306 304 308 312 308 298 282 254 227 235 245 236 212 215 224 222 217 223
319 319 321 318 317 321 323 322 319 316 319 322 324 323 327 337 344 345 352 359 341 334 333 325 316 305 298 290 290 286 289 291 271 249 242 243 248 236 222 222 222 217 224
315 319 322 323 325 323 321 318 316 314 316 318 317 321 330 332 330 331 334 338 330 322 325 321 313 307 300 295 288 275 270 278 273 256 248 247 242 246 241 227 224 223 218
317 318 322 321 319 320 316 313 316 318 318 316 322 334 343 350 345 334 334 333 333 325 311 299 299 301 287 275 274 271 269 269 271 261 257 262 257 248 242 231 228 236 223
321 323 324 320 317 317 323 326 324 320 319 325 329 330 337 342 340 338 335 333 330 323 322 314 300 302 309 308 289 264 253 258 261 255 251 253 253 251 242 233 225 232 237
321 320 320 320 320 320 320 323 323 320 320 323 326 328 329 331 329 328 330 329 326 323 321 317 304 294 297 308 302 290 274 262 256 252 241 238 239 243 235 231 230 229 236
316 315 319 320 320 319 319 320 322 325 327 325 325 325 326 324 322 322 325 326 323 318 315 314 312 308 302 296 295 291 283 277 273 259 244 232 226 225 223 223 229 227 230
317 317 316 316 315 314 315 316 318 321 323 321 322 321 317 314 315 318 318 317 316 312 310 310 306 303 301 298 292 288 285 283 278 269 252 228 216 218 217 223 225 226 220
Height
1479 1477 1476 1475 1475 1474 1474 1475 1475 1475 1476 1477 1478 1479 1480 1482 1483 1485 1486 1488 1489 1491 1493 1494 1496 1498 1500 1502 1504 1506 1508 1510 1510 1511 1513 1515 1517 1519 1521 1523 1524 1525 1526
1475 1473 1472 1471 1470 1470 1469 1469 1470 1470 1471 1471 1472 1473 1474 1475 1477 1478 1480 1481 1482 1484 1486 1488 1490 1492 1494 1496 1498 1500 1501 1503 1505 1505 1507 1510 1511 1514 1515 1517 1519 1520 1521
1472 1470 1468 1467 1465 1464 1464 1464 1465 1465 1465 1466 1467 1467 1469 1470 1471 1472 1473 1475 1476 1478 1479 1481 1483 1485 1487 1489 1491 1493 1495 1497 1499 1500 1501 1504 1506 1508 1510 1511 1513 1515 1516
1468 1466 1464 1462 1461 1460 1459 1459 1460 1460 1460 1460 1461 1462 1463 1464 1465 1466 1468 1469 1470 1472 1473 1475 1477 1479 1480 1482 1484 1486 1489 1491 1492 1494 1496 1497 1500 1502 1504 1505 1507 1509 1510
1464 1461 1459 1458 1457 1456 1455 1455 1455 1455 1455 1455 1455 1457 1458 1459 1460 1461 1462 1463 1464 1466 1467 1469 1471 1473 1474 1476 1478 1480 1482 1484 1486 1488 1489 1491 1493 1496 1497 1499 1501 1502 1504
1459 1457 1456 1455 1453 1452 1451 1450 1450 1450 1450 1450 1450 1451 1452 1453 1454 1456 1457 1458 1458 1459 1461 1462 1465 1466 1468 1470 1472 1474 1476 1478 1479 1481 1483 1484 1486 1489 1492 1493 1495 1496 1496
1456 1453 1452 1450 1449 1448 1447 1446 1445 1445 1445 1444 1445 1446 1446 1447 1449 1450 1452 1452 1453 1454 1455 1456 1458 1460 1462 1464 1465 1467 1470 1472 1474 1476 1477 1478 1481 1483 1485 1486 1488 1489 1490
1453 1451 1449 1447 1446 1444 1443 1442 1442 1441 1440 1440 1440 1441 1441 1442 1444 1445 1446 1447 1448 1448 1449 1450 1452 1454 1456 1458 1459 1461 1463 1465 1467 1469 1471 1473 1475 1477 1479 1480 1482 1483 1484
1449 1447 1445 1444 1442 1441 1440 1439 1438 1438 1436 1435 1435 1436 1436 1437 1439 1440 1441 1442 1442 1443 1444 1445 1446 1447 1450 1452 1454 1455 1456 1458 1461 1463 1465 1467 1469 1471 1472 1474 1475 1477 1477
1445 1443 1441 1440 1438 1437 1436 1435 1434 1433 1432 1431 1431 1432 1432 1432 1433 1435 1437 1437 1437 1438 1439 1440 1441 1442 1444 1446 1448 1449 1450 1451 1454 1457 1459 1460 1462 1464 1465 1467 1468 1470 1470
1442 1440 1438 1436 1435 1433 1432 1431 1430 1429 1428 1428 1427 1427 1427 1428 1429 1431 1432 1433 1433 1433 1434 1434 1435 1437 1439 1441 1442 1443 1444 1447 1449 1451 1453 1454 1455 1457 1458 1460 1462 1464 1464
1439 1437 1435 1433 1431 1430 1429 1427 1427 1426 1424 1424 1423 1423 1424 1424 1425 1426 1428 1429 1429 1429 1429 1430 1431 1432 1434 1435 1436 1438 1440 1442 1444 1445 1446 1448 1450 1451 1452 1454 1456 1457 1458
1436 1433 1431 1430 1428 1427 1425 1424 1423 1422 1421 1420 1420 1420 1420 1420 1421 1423 1424 1425 1425 1425 1425 1426 1427 1428 1429 1430 1432 1433 1435 1437 1438 1439 1440 1442 1444 1445 1447 1448 1449 1451 1452
1433 1431 1428 1426 1424 1423 1422 1421 1420 1419 1418 1418 1417 1416 1416 1417 1418 1419 1420 1420 1421 1421 1421 1422 1423 1424 1424 1425 1427 1428 1430 1431 1432 1434 1435 1437 1439 1440 1441 1442 1443 1444 1445
1430 1428 1426 1424 1422 1420 1419 1418 1417 1416 1415 1415 1415 1414 1414 1414 1415 1416 1416 1416 1416 1417 1417 1418 1418 1419 1420 1421 1422 1423 1425 1426 1428 1429 1431 1432 1433 1435 1436 1437 1438 1439 1440
1428 1426 1424 1422 1420 1418 1416 1415 1414 1414 1413 1413 1413 1413 1412 1412 1413 1413 1413 1413 1413 1414 1414 1414 1415 1415 1416 1417 1418 1419 1420 1422 1424 1425 1426 1427 1428 1430 1431 1432 1433 1434 1435
1426 1423 1422 1420 1417 1415 1414 1412 1411 1411 1411 1411 1410 1410 1410 1410 1410 1410 1410 1410 1411 1411 1411 1411 1412 1412 1413 1414 1414 1415 1416 1418 1420 1421 1422 1423 1425 1426 1427 1428 1429 1430 1430
1423 1421 1420 1418 1416 1414 1412 1411 1410 1409 1408 1407 1408 1408 1408 1408 1408 1408 1408 1408 1408 1408 1408 1408 1409 1410 1410 1411 1411 1412 1413 1414 1416 1417 1418 1420 1421 1422 1423 1424 1425 1426 1426
1422 1420 1418 1416 1414 1412 1411 1410 1409 1408 1406 1405 1405 1405 1405 1405 1405 1406 1406 1406 1405 1405 1406 1406 1407 1407 1408 1408 1409 1410 1411 1411 1412 1413 1415 1416 1417 1418 1419 1420 1421 1422 1423
1420 1418 1416 1414 1412 1411 1410 1409 1407 1406 1405 1403 1402 1402 1403 1403 1403 1403 1403 1403 1403 1403 1404 1404 1404 1405 1405 1406 1406 1407 1408 1408 1409 1410 1411 1413 1414 1415 1416 1417 1418 1418 1419
1419 1417 1415 1413 1411 1410 1409 1407 1406 1404 1403 1402 1402 1401 1402 1401 1401 1401 1401 1401 1401 1401 1401 1402 1402 1402 1403 1403 1404 1404 1405 1405 1406 1407 1408 1409 1410 1411 1412 1413 1414 1414 1415
1417 1415 1413 1412 1410 1409 1407 1406 1404 1403 1402 1401 1400 1400 1400 1400 1399 1399 1399 1399 1399 1399 1399 1399 1399 1399 1400 1400 1401 1401 1402 1402 1403 1404 1405 1406 1407 1408 1409 1410 1410 1411 1412
1416 1414 1412 1410 1409 1408 1406 1404 1403 1402 1401 1400 1399 1399 1398 1398 1397 1397 1397 1397 1397 1396 1397 1397 1396 1396 1397 1397 1398 1399 1399 1399 1400 1401 1402 1403 1404 1405 1406 1406 1407 1408 1408
1415 1413 1411 1409 1408 1406 1405 1403 1402 1400 1400 1399 1398 1398 1397 1397 1396 1395 1395 1395 1394 1394 1394 1394 1393 1393 1394 1394 1395 1396 1396 1397 1397 1398 1399 1400 1401 1401 1402 1403 1404 1404 1405
1414 1412 1410 1408 1407 1405 1404 1402 1401 1400 1399 1398 1397 1396 1396 1395 1394 1393 1393 1393 1392 1392 1392 1391 1391 1391 1391 1391 1392 1392 1393 1394 1395 1395 1396 1397 1397 1398 1399 1399 1400 1401 1401
1412 1410 1409 1407 1406 1404 1403 1401 1400 1399 1398 1397 1396 1395 1394 1393 1392 1392 1391 1391 1390 1389 1389 1389 1388 1388 1388 1389 1389 1390 1390 1391 1392 1392 1393 1393 1394 1395 1395 1396 1397 1397 1398